EW2591 Weather Reports


Display with metric or nautical units.
time (UTC)temp
F
wind
direction
speed
MPH
gust
MPH
rain 1hr
in
rain 24hr
in
rain mn
in
humidity
%
barometer
mb
20260506192343 59 262 3.0 11.0 0.01 0.50 0.32 89
20260506191822 59 222 4.0 10.0 0.00 0.49 0.31 89
20260506191322 59 229 4.0 11.0 0.00 0.49 0.31 88
20260506190822 60 218 4.0 11.0 0.00 0.49 0.31 89
20260506190322 60 214 5.0 9.0 0.00 0.49 0.31 89
20260506185822 60 228 2.0 8.0 0.00 0.49 0.31 89
20260506185322 60 249 3.0 8.0 0.00 0.49 0.31 89
20260506184821 60 220 2.0 13.0 0.00 0.49 0.31 89
20260506184343 60 203 7.0 13.0 0.00 0.49 0.31 89
20260506183823 60 241 5.0 11.0 0.00 0.49 0.31 89
20260506183345 60 231 4.0 12.0 0.00 0.49 0.31 90
20260506182824 60 204 4.0 15.0 0.00 0.49 0.31 90
20260506182324 59 240 5.0 15.0 0.01 0.49 0.31 91
20260506181845 59 247 4.0 13.0 0.01 0.49 0.31 91
20260506181324 59 227 4.0 8.0 0.02 0.49 0.31 91
20260506180845 59 262 3.0 9.0 0.02 0.49 0.31 91
20260506180326 59 264 1.0 9.0 0.02 0.49 0.31 91
20260506175826 59 224 4.0 9.0 0.02 0.49 0.31 92
20260506175346 59 212 2.0 7.0 0.02 0.49 0.31 92
20260506174825 59 239 2.0 9.0 0.02 0.49 0.31 91
20260506174345 59 239 3.0 9.0 0.03 0.49 0.31 91
20260506173822 59 262 2.0 12.0 0.03 0.49 0.31 92
20260506173324 58 243 7.0 12.0 0.03 0.49 0.31 91
20260506172843 58 276 0.0 8.0 0.04 0.49 0.31 92
20260506172323 59 267 1.0 8.0 0.03 0.48 0.30 92
20260506171823 58 252 1.0 6.0 0.03 0.47 0.29 92
20260506171323 58 228 2.0 6.0 0.04 0.47 0.29 92
20260506170823 58 247 0.0 3.0 0.04 0.47 0.29 92
20260506170324 58 256 2.0 5.0 0.05 0.47 0.29 92
20260506165822 58 241 0.0 5.0 0.06 0.47 0.29 92
20260506165322 58 259 0.0 4.0 0.07 0.47 0.29 92
20260506164823 58 268 0.0 1.0 0.07 0.47 0.29 92
20260506164324 58 268 0.0 4.0 0.06 0.46 0.28 92
20260506163825 58 268 0.0 4.0 0.06 0.46 0.28 91
20260506163325 58 268 0.0 4.0 0.06 0.46 0.28 91
20260506162907 58 249 2.0 4.0 0.06 0.45 0.27 91
20260506162329 58 230 0.0 5.0 0.05 0.44 0.26 91
20260506161828 58 218 1.0 6.0 0.05 0.44 0.26 91
20260506161325 58 246 0.0 8.0 0.04 0.43 0.25 91
20260506160824 58 245 2.0 8.0 0.04 0.43 0.25 91
20260506160324 58 235 1.0 8.0 0.03 0.42 0.24 91
20260506155823 58 244 4.0 9.0 0.02 0.41 0.23 91
20260506155323 58 270 2.0 9.0 0.01 0.40 0.22 92
20260506154822 58 269 2.0 8.0 0.01 0.40 0.22 92
20260506154343 58 280 1.0 9.0 0.02 0.40 0.22 92
20260506153822 58 270 3.0 9.0 0.02 0.40 0.22 92
20260506153343 58 302 1.0 9.0 0.03 0.40 0.22 93
20260506152823 58 201 3.0 9.0 0.02 0.39 0.21 93
20260506152323 58 219 3.0 9.0 0.03 0.39 0.21 93
20260506151843 57 255 0.0 0.0 0.03 0.39 0.21 93
20260506151323 57 255 0.0 0.0 0.04 0.39 0.21 93
20260506150823 57 255 0.0 0.0 0.04 0.39 0.21 93
20260506150323 57 254 0.0 0.0 0.05 0.39 0.21 93
20260506145821 56 256 0.0 1.0 0.06 0.39 0.21 93
20260506145320 56 256 0.0 2.0 0.07 0.39 0.21 93
20260506144821 56 256 0.0 2.0 0.08 0.39 0.21 93
20260506144322 56 257 0.0 1.0 0.08 0.38 0.20 93
20260506143822 56 257 0.0 0.0 0.08 0.37 0.19 93
20260506143322 56 257 0.0 0.0 0.08 0.37 0.19 92
20260506142821 56 257 0.0 0.0 0.09 0.37 0.19 92
20260506142342 56 257 0.0 0.0 0.08 0.36 0.18 92
20260506141821 56 257 0.0 0.0 0.08 0.36 0.18 92
20260506141321 56 257 0.0 0.0 0.08 0.35 0.17 92
20260506140819 56 257 0.0 0.0 0.08 0.35 0.17 92
20260506140341 56 257 0.0 2.0 0.07 0.34 0.16 92
20260506135840 56 257 0.0 3.0 0.06 0.34 0.15 92
20260506135319 56 257 0.0 3.0 0.05 0.33 0.14 92
20260506134818 56 257 0.0 3.0 0.04 0.32 0.13 92
20260506134318 56 257 0.0 3.0 0.03 0.31 0.12 92
20260506133818 56 257 1.0 3.0 0.02 0.30 0.11 92
20260506133339 56 257 0.0 3.0 0.01 0.29 0.10 92
20260506132839 56 257 0.0 0.0 0.01 0.29 0.10 93
20260506132338 56 257 0.0 0.0 0.01 0.29 0.10 93
20260506131817 56 257 0.0 4.0 0.01 0.29 0.10 93
20260506131317 56 257 0.0 4.0 0.00 0.28 0.09 93
20260506130840 55 264 0.0 6.0 0.00 0.28 0.09 94
20260506130320 55 264 2.0 6.0 0.00 0.28 0.09 94
20260506125818 55 278 2.0 7.0 0.01 0.28 0.09 94
20260506125317 55 294 3.0 7.0 0.01 0.28 0.09 94
20260506124817 55 270 1.0 4.0 0.01 0.28 0.09 94
20260506124318 55 269 1.0 4.0 0.02 0.28 0.09 94
20260506123820 55 164 0.0 0.0 0.02 0.28 0.09 94
20260506123321 54 164 0.0 0.0 0.03 0.28 0.09 94
20260506122840 54 164 0.0 0.0 0.03 0.28 0.09 94
20260506122336 54 164 0.0 1.0 0.03 0.28 0.09 94
20260506121816 54 164 0.0 0.0 0.04 0.28 0.09 94
20260506121317 53 160 0.0 4.0 0.04 0.28 0.09 94
20260506120817 53 160 1.0 4.0 0.05 0.28 0.09 95
20260506120318 53 266 1.0 4.0 0.05 0.28 0.09 95
20260506115817 52 4 0.0 0.0 0.05 0.27 0.08 94
20260506115338 52 4 0.0 0.0 0.05 0.27 0.08 94
20260506114838 52 4 0.0 0.0 0.06 0.27 0.08 94
20260506114318 52 4 0.0 0.0 0.05 0.26 0.07 94
20260506113818 52 4 0.0 0.0 0.05 0.26 0.07 94
20260506113318 52 4 0.0 0.0 0.05 0.25 0.06 94
20260506112819 52 4 0.0 0.0 0.05 0.25 0.06 94
20260506112319 52 4 0.0 0.0 0.04 0.24 0.05 94
20260506111839 51 4 0.0 0.0 0.04 0.24 0.05 94
20260506111318 51 4 0.0 0.0 0.04 0.24 0.05 94
20260506110817 51 4 0.0 0.0 0.04 0.23 0.04 94
20260506110319 51 4 0.0 0.0 0.04 0.23 0.04 94
20260506105818 51 4 0.0 0.0 0.03 0.22 0.03 94
20260506105319 51 4 0.0 0.0 0.03 0.22 0.03 94
20260506104815 51 4 0.0 0.0 0.02 0.21 0.02 94
20260506104317 51 4 0.0 0.0 0.02 0.21 0.02 94
20260506103817 51 4 0.0 0.0 0.02 0.21 0.02 94
20260506103339 51 4 0.0 0.0 0.01 0.20 0.01 94
20260506102837 51 4 0.0 0.0 0.01 0.20 0.01 94
20260506102316 51 4 0.0 0.0 0.01 0.20 0.01 94
20260506101835 51 4 0.0 0.0 0.01 0.20 0.01 94
20260506101315 51 4 0.0 0.0 0.01 0.20 0.01 94
20260506100815 51 4 0.0 0.0 0.00 0.19 0.00 94
20260506100336 51 4 0.0 0.0 0.00 0.19 0.00 94
20260506095815 51 4 0.0 0.0 0.00 0.19 0.00 93
20260506095336 51 4 0.0 0.0 0.00 0.19 0.00 93
20260506094816 51 4 0.0 0.0 0.00 0.19 0.00 93
20260506094316 51 4 0.0 0.0 0.00 0.19 0.00 93
20260506093816 51 4 0.0 0.0 0.00 0.19 0.00 93
20260506093338 51 4 0.0 0.0 0.00 0.19 0.00 93
20260506092853 51 4 0.0 0.0 0.00 0.19 0.00 93
20260506092353 51 4 0.0 0.0 0.00 0.19 0.00 93
20260506091852 51 4 0.0 0.0 0.00 0.19 0.00 93
20260506091331 51 4 0.0 0.0 0.00 0.19 0.00 93
20260506090829 51 4 0.0 0.0 0.00 0.19 0.00 93
20260506090330 51 4 0.0 0.0 0.00 0.19 0.00 93
20260506085829 51 4 0.0 0.0 0.00 0.19 0.00 93
20260506085330 51 4 0.0 0.0 0.00 0.19 0.00 93
20260506084830 51 4 0.0 0.0 0.00 0.19 0.00 93
20260506084330 51 4 0.0 0.0 0.00 0.19 0.00 93
20260506083829 51 4 0.0 0.0 0.00 0.19 0.00 93
20260506083350 51 4 0.0 0.0 0.00 0.19 0.00 93
20260506082828 51 4 0.0 0.0 0.00 0.19 0.00 93
20260506082328 51 4 0.0 0.0 0.00 0.19 0.00 93
20260506081829 51 4 0.0 0.0 0.00 0.19 0.00 93
20260506081350 51 4 0.0 0.0 0.00 0.19 0.00 93
20260506080829 51 4 0.0 0.0 0.00 0.19 0.00 93
20260506080332 51 4 0.0 0.0 0.00 0.19 0.00 93
20260506073349 51 4 0.0 2.0 0.00 0.19 0.00 93
20260506072827 51 4 0.0 3.0 0.00 0.19 0.00 93
20260506072328 51 4 0.0 5.0 0.00 0.19 0.00 92
20260506071826 51 4 1.0 5.0 0.00 0.19 0.00 92
20260506071326 51 354 0.0 1.0 0.00 0.19 0.00 92
20260506070825 51 354 0.0 0.0 0.00 0.19 0.00 92
20260506070347 51 354 0.0 0.0 0.00 0.19 0.00 92
20260506062323 52 354 0.0 0.0 0.00 0.19 0.00 92
20260506061822 52 354 0.0 0.0 0.00 0.19 0.00 92
20260506061322 52 354 0.0 0.0 0.00 0.19 0.00 91
20260506060822 53 354 0.0 0.0 0.00 0.19 0.00 91
20260506060323 53 354 0.0 0.0 0.00 0.19 0.00 92
20260506051344 53 354 0.0 0.0 0.00 0.19 0.00 91
20260506050823 53 354 0.0 0.0 0.00 0.19 0.00 91
20260506050325 53 354 0.0 0.0 0.00 0.19 0.00 91
20260506044822 53 354 0.0 0.0 0.00 0.19 0.00 91
20260506044342 54 354 0.0 0.0 0.00 0.19 0.00 91
20260506043841 54 354 0.0 0.0 0.00 0.19 0.00 91
20260506043320 54 354 0.0 0.0 0.00 0.19 0.00 90
20260506042819 54 354 0.0 0.0 0.00 0.19 0.00 90
20260506042320 54 354 0.0 0.0 0.00 0.19 0.00 91
20260506041820 54 354 0.0 0.0 0.00 0.19 0.00 90
20260506041320 54 354 0.0 0.0 0.00 0.19 0.00 90
20260506040841 54 354 0.0 0.0 0.00 0.19 0.00 90
20260506040320 54 354 0.0 0.0 0.00 0.19 0.00 90
20260506035819 54 354 0.0 0.0 0.00 0.19 0.19 89
20260506035320 54 354 0.0 0.0 0.00 0.19 0.19 89
20260506034821 54 354 0.0 0.0 0.00 0.19 0.19 89
20260506034322 55 354 0.0 0.0 0.00 0.19 0.19 89
20260506033824 55 354 0.0 0.0 0.00 0.19 0.19 89
20260506033323 55 354 0.0 0.0 0.00 0.19 0.19 89
20260506032823 55 354 0.0 0.0 0.00 0.19 0.19 89
20260506032324 55 354 0.0 0.0 0.01 0.19 0.19 89
20260506031826 55 354 0.0 0.0 0.01 0.19 0.19 88
20260506031326 55 354 0.0 0.0 0.01 0.19 0.19 88
20260506030825 55 354 0.0 0.0 0.01 0.19 0.19 88
20260506030327 55 354 0.0 3.0 0.01 0.19 0.19 89
20260506025825 55 354 0.0 3.0 0.01 0.19 0.19 89
20260506025325 55 337 0.0 3.0 0.01 0.19 0.19 89
20260506024825 55 337 1.0 4.0 0.01 0.19 0.19 90
20260506024325 55 14 1.0 8.0 0.01 0.19 0.19 90
20260506023827 55 4 3.0 10.0 0.01 0.19 0.19 90
20260506023328 56 12 2.0 10.0 0.01 0.19 0.19 91
20260506022827 57 25 1.0 4.0 0.01 0.19 0.19 92
20260506022326 57 4 0.0 9.0 0.00 0.18 0.18 92
20260506021825 57 349 2.0 6.0 0.00 0.18 0.18 92
20260506021341 58 334 2.0 6.0 0.00 0.18 0.18 92
20260506020820 58 285 0.0 4.0 0.00 0.18 0.18 92
20260506020322 58 284 0.0 4.0 0.00 0.18 0.18 92
20260506015819 58 283 1.0 3.0 0.00 0.18 0.18 92
20260506015318 58 283 0.0 0.0 0.00 0.18 0.18 92
20260506014819 58 283 0.0 0.0 0.00 0.18 0.18 92
20260506014319 58 283 0.0 0.0 0.00 0.18 0.18 92
20260506013819 58 283 0.0 0.0 0.00 0.18 0.18 92
20260506013319 58 283 0.0 0.0 0.00 0.18 0.18 92
20260506012839 58 283 0.0 0.0 0.00 0.18 0.18 92
20260506012316 58 283 0.0 0.0 0.00 0.18 0.18 92
20260506011819 58 283 0.0 0.0 0.00 0.18 0.18 92
20260506011319 58 283 0.0 0.0 0.00 0.18 0.18 92
20260506010820 58 283 0.0 0.0 0.00 0.18 0.18 91
20260506010321 59 283 0.0 0.0 0.00 0.18 0.18 91
20260506005822 59 283 0.0 0.0 0.00 0.18 0.18 91
20260506005343 59 283 0.0 0.0 0.00 0.18 0.18 91
20260506004842 59 283 0.0 0.0 0.00 0.18 0.18 91
20260506004323 59 283 0.0 0.0 0.00 0.18 0.18 91
20260506003822 59 283 0.0 0.0 0.01 0.18 0.18 91
20260506003324 59 283 0.0 0.0 0.01 0.18 0.18 90
20260506002824 59 283 0.0 0.0 0.01 0.18 0.18 90
20260506002326 59 283 0.0 0.0 0.02 0.18 0.18 90
20260506001844 59 283 0.0 0.0 0.02 0.18 0.18 90
20260506001322 59 283 0.0 0.0 0.02 0.18 0.18 90
20260506000824 60 283 0.0 0.0 0.02 0.18 0.18 89
20260506000346 60 283 0.0 0.0 0.02 0.18 0.18 89
20260505235823 60 283 0.0 0.0 0.02 0.18 0.18 89
20260505235322 60 283 0.0 4.0 0.02 0.18 0.18 89
20260505234822 60 283 1.0 4.0 0.02 0.18 0.18 88
20260505234323 60 244 0.0 2.0 0.02 0.18 0.18 88
20260505233842 61 244 0.0 0.0 0.01 0.17 0.17 88
20260505233342 61 244 0.0 0.0 0.01 0.17 0.17 88
20260505232820 61 244 0.0 1.0 0.01 0.17 0.17 88
20260505232319 61 243 0.0 0.0 0.00 0.16 0.16 87
20260505231818 61 243 0.0 0.0 0.00 0.16 0.16 87
20260505231338 61 243 0.0 2.0 0.00 0.16 0.16 86
20260505230817 61 243 0.0 2.0 0.00 0.16 0.16 86
20260505230318 61 243 0.0 1.0 0.00 0.16 0.16 86
20260505225817 61 243 0.0 3.0 0.00 0.16 0.16 85
20260505225337 62 243 0.0 3.0 0.00 0.16 0.16 85
20260505224816 62 243 0.0 1.0 0.00 0.16 0.16 85
20260505224319 62 243 0.0 0.0 0.00 0.16 0.16 85
20260505223819 62 243 0.0 3.0 0.00 0.16 0.16 85
20260505223320 62 243 0.0 3.0 0.00 0.16 0.16 85
20260505222838 62 243 1.0 3.0 0.00 0.16 0.16 85
20260505222317 62 243 0.0 3.0 0.00 0.16 0.16 86
20260505221839 61 243 0.0 3.0 0.01 0.16 0.16 87
20260505221318 61 243 0.0 4.0 0.02 0.16 0.16 86
20260505220818 61 243 0.0 4.0 0.03 0.16 0.16 86
20260505220318 61 243 1.0 4.0 0.03 0.16 0.16 86
20260505215818 61 218 0.0 0.0 0.03 0.16 0.16 86
20260505215317 61 218 0.0 0.0 0.05 0.16 0.16 86
20260505214818 61 218 0.0 4.0 0.09 0.16 0.16 86
20260505214335 61 218 0.0 6.0 0.13 0.16 0.16 85
20260505213814 61 214 2.0 7.0 0.15 0.16 0.16 84
20260505213315 61 243 1.0 6.0 0.15 0.16 0.16 84
20260505212834 61 235 3.0 6.0 0.15 0.16 0.16 83
20260505212317 62 301 1.0 9.0 0.15 0.16 0.16 82
20260505211838 62 263 3.0 9.0 0.13 0.14 0.14 80
20260505211318 62 268 3.0 14.0 0.13 0.14 0.14 80
20260505210844 62 310 6.0 15.0 0.12 0.13 0.13 79
20260505210328 63 305 7.0 15.0 0.12 0.13 0.13 77
20260505205827 64 305 4.0 20.0 0.12 0.13 0.13 75
20260505205328 66 276 7.0 20.0 0.10 0.11 0.11 69
20260505204826 68 18 7.0 26.0 0.06 0.07 0.07 62
20260505204347 73 258 12.0 25.0 0.02 0.03 0.03 50
20260505203825 75 281 5.0 15.0 0.00 0.01 0.01 43
20260505203325 75 217 7.0 15.0 0.00 0.01 0.01 39
20260505202824 75 256 6.0 16.0 0.00 0.01 0.01 39
20260505202323 75 218 4.0 13.0 0.00 0.01 0.01 40
20260505201823 75 287 6.0 14.0 0.00 0.01 0.01 40
20260505201324 75 278 5.0 13.0 0.00 0.01 0.01 41
20260505200824 76 299 6.0 13.0 0.00 0.01 0.01 41
20260505200324 76 261 5.0 11.0 0.00 0.01 0.01 40
20260505195822 76 250 6.0 14.0 0.00 0.01 0.01 43
20260505195322 75 251 4.0 14.0 0.00 0.01 0.01 44
20260505194842 75 241 6.0 14.0 0.00 0.01 0.01 44
20260505194320 74 245 4.0 14.0 0.00 0.01 0.01 45
20260505193819 73 212 6.0 11.0 0.00 0.01 0.01 48
20260505193320 72 208 4.0 10.0 0.00 0.01 0.01 52
20260505192818 71 219 4.0 9.0 0.00 0.01 0.01 55